Lid_Strength_Index
-0 -1 -1 -1 -1 -1 -1 -1 -1 -1 -1 -1 -1 -1 -1 -1 -1 -1 -1 -1 -1 -1 -1 -1 -2 -2 -2 -2 -2 -2 -2 -1 -1 -1 -1 -1 -2 -2 -1 -1 -1 -1 -1
-1 -1 -0 -1 -1 -1 -1 -1 -1 -1 -1 -1 -1 -1 -1 -1 -1 -1 -1 -2 -2 -1 -1 -1 -2 -2 -2 -2 -1 -2 -2 -1 -1 -1 -1 -1 -2 -2 -2 -2 -1 -1 -1
-1 -1 -0 -0 -1 -1 -1 -1 -1 -1 -0 -0 -0 -1 -1 -1 -1 -1 -1 -2 -2 -1 -1 -1 -2 -3 -2 -1 -1 -2 -2 -2 -1 -1 -1 -1 -2 -2 -2 -1 -2 -1 -1
-1 -1 -0 -0 -1 -1 -1 -0 0 1 1 1 1 -0 -0 -1 -1 -1 -1 -1 -1 -1 -1 -1 -2 -2 -2 -2 -2 -2 -2 -2 -1 -1 -1 -1 -2 -2 -2 -2 -2 -1 -1
-1 -1 -0 -0 -1 -1 0 0 0 1 1 1 1 0 -0 -0 -0 -1 -1 -1 -1 -1 -1 -1 -1 -2 -2 -2 -2 -2 -2 -2 -1 -1 -1 -1 -1 -1 -2 -2 -2 -2 -1
-1 -1 -0 -0 -0 0 0 1 0 0 1 1 1 1 0 -0 -0 -0 -0 -1 -1 -1 -1 -1 -1 -1 -1 -2 -2 -2 -2 -2 -2 -1 -1 -1 -1 -1 -1 -2 -2 -2 -2
-1 -0 0 0 -0 1 0 -0 0 1 1 1 2 2 1 0 0 -0 -0 -0 -1 -1 -1 -1 -1 -1 -1 -1 -1 -2 -2 -2 -1 -2 -1 -1 -1 -1 -1 -1 -2 -2 -1
-0 0 0 0 0 0 0 0 0 1 1 1 2 2 4 3 1 0 0 0 -0 -1 -0 -1 -1 -1 -1 -1 -2 -2 -2 -2 -2 -2 -1 -1 -1 -1 -1 -1 -1 -2 -2
-0 -0 0 0 0 0 1 1 1 1 2 1 1 2 5 5 3 1 1 0 -0 0 -0 -1 -1 -1 -1 -1 -1 -1 -1 -2 -2 -2 -2 -1 -1 -1 -1 -1 -1 -1 -2
-0 -0 -0 0 0 0 1 1 0 1 1 2 1 1 1 1 4 5 1 1 0 0 -0 -0 -0 -1 -1 -1 -1 -1 -1 -1 -2 -2 -2 -1 -1 -1 -1 -1 -1 -1 -2
-0 -0 -0 -0 0 0 0 0 1 1 1 2 2 2 2 2 1 3 5 3 1 0 -0 -0 -1 -1 -1 -1 -1 -1 -1 -1 -1 -1 -1 -1 -1 -1 -1 -1 -1 -1 -1
1 0 -0 0 -0 0 0 0 0 0 1 1 1 2 2 3 3 3 4 3 3 1 0 -0 -0 -1 -1 -1 -1 -1 -0 -0 0 -0 -1 -1 -1 -1 -1 -1 -1 -1 -1
1 1 0 0 0 0 0 0 0 0 1 1 1 1 1 2 1 2 3 3 3 2 1 -0 -0 -1 -1 -1 -2 -1 -0 0 1 1 1 -0 0 -0 -1 -1 -1 -1 -1
1 0 0 0 0 0 0 0 0 1 0 1 1 1 1 1 1 1 2 3 4 3 2 2 -1 -1 -1 -1 -1 -1 -1 0 1 2 2 1 1 1 0 0 -0 -1 -0
1 0 0 0 0 0 0 0 1 1 0 1 1 1 1 1 0 0 1 1 3 5 4 2 2 -1 -1 -1 -1 -1 -1 0 0 2 2 2 2 2 2 2 1 1 1
0 1 1 0 0 0 0 0 1 0 1 1 1 1 1 1 0 0 1 1 1 2 4 1 1 -0 -1 -0 -1 -1 -1 0 1 3 2 3 3 3 2 2 2 2 1
1 1 1 1 1 1 0 1 1 1 1 1 2 1 1 0 1 1 1 1 1 1 3 2 1 -0 0 0 0 -1 -1 -1 -1 3 3 3 4 3 3 3 3 2 2
0 1 1 1 1 1 1 1 1 1 1 2 2 1 1 1 1 0 1 1 1 1 2 3 2 1 1 -0 -0 0 -0 -1 -1 2 3 4 4 4 5 4 4 3 3
1 1 1 1 1 1 1 1 1 1 1 1 1 1 1 1 1 1 1 1 1 1 1 2 2 1 1 0 1 0 1 -0 -1 2 4 4 4 4 5 5 5 5 5
1 1 1 1 1 1 1 1 1 1 2 2 1 1 1 1 1 1 1 1 1 1 1 2 2 2 2 1 1 2 2 1 1 0 2 3 3 4 5 5 4 5 6
1 1 1 1 1 1 1 1 1 1 2 1 1 0 0 1 2 1 1 1 1 2 2 2 3 3 3 3 3 2 2 1 1 1 1 -0 0 1 2 4 3 4 6
1 1 1 1 1 1 9 7 3 1 1 1 1 1 0 2 2 5 4 4 2 1 2 2 3 3 3 2 2 2 2 3 4 0 2 2 1 2 2 1 4 6 6
2 2 1 1 1 1 10 9 7 1 1 1 1 1 1 0 1 0 5 6 4 5 3 1 3 2 2 2 2 2 2 2 3 2 2 3 2 2 2 3 6 7 7
2 2 2 1 1 1 11 11 8 0 1 1 0 0 1 1 0 1 1 1 1 0 1 0 1 1 0 1 0 1 1 1 1 2 1 4 3 3 3 3 6 7 8
2 2 2 2 2 6 12 12 4 1 1 1 1 0 0 1 7 8 1 2 2 1 7 6 6 6 6 6 2 1 3 3 3 2 1 1 3 3 3 2 4 7 8
2 2 3 1 6 4 14 11 4 1 1 1 1 0 8 2 10 10 1 1 3 3 3 3 4 5 5 4 6 -0 2 3 3 3 1 2 2 1 4 2 3 4 4